Location: Newark
(34.6283°N, 36.0776°E)
Time: 14:06:31
(UTC+00:00)

S-56A Canister/Altair - Pass Details

Date: 18 October 2019
Orbit: 634 x 2498 km, 38.9° (Epoch: 11 November)

Event Time Altitude Azimuth Distance (km) Brightness Sun altitude
Rises 09:31:23 0° 276° (W) 5,785 12.0 45.7°
Reaches altitude 10° 09:38:13 10° 253° (WSW) 5,031 12.0 45.6°
Maximum altitude 09:43:52 13° 230° (SW) 4,860 12.3 45.5°
Drops below altitude 10° 09:49:40 10° 207° (SSW) 5,145 12.7 45.3°
Sets 09:57:02 0° 184° (S) 6,022 12.8 45.0°
